This demonstration page uses our WeatherBlox Daily Observations layout. Learn more.

38.88101, -77.10428

Hourly Observations for March 29, 2015

Temp ( °F °C ) Dew Point ( °F °C ) Humidity (%) Winds ( mph kmh ) Pressure ( in mb ) Visibility ( mi km ) Precip ( " mm )
12:52 am 00:52 Clear 31 -0.6 6 -14.4 35 35 NNW 16 26 30.27 1025 10 16.0934 0 0
1:52 am 01:52 Clear 31 -0.6 5 -15 33 33 NNW 14 22 30.28 1026 10 16.0934 0 0
2:52 am 02:52 Clear 30 -1.1 4 -15.6 33 33 NW 12 19 30.29 1026 10 16.0934 0 0
3:52 am 03:52 Clear 29 -1.7 5 -15 36 36 NW 14 22 30.3 1026 10 16.0934 0 0
4:52 am 04:52 Clear 28 -2.2 6 -14.4 39 39 NW 12 19 30.31 1027 10 16.0934 0 0
5:52 am 05:52 Clear 28 -2.2 7 -13.9 41 41 NW 9 15 30.33 1027 10 16.0934 0 0
6:52 am 06:52 Clear 28 -2.2 8 -13.3 43 43 NNW 13 20 30.36 1028 10 16.0934 0 0
7:52 am 07:52 Sunny 29 -1.7 8 -13.3 41 41 NW 13 20 30.39 1029 10 16.0934 0 0
8:52 am 08:52 Sunny 31 -0.6 10 -12.2 42 42 NNW 12 19 30.4 1029 10 16.0934 0 0
9:52 am 09:52 Sunny 34 1.1 11 -11.7 38 38 NNW 12 19 30.41 1030 10 16.0934 0 0
10:52 am 10:52 Sunny 37 2.8 9 -12.8 31 31 NNW 10 17 30.42 1030 10 16.0934 0 0
11:52 am 11:52 Sunny 38 3.3 10 -12.2 31 31 N 12 19 30.41 1030 10 16.0934 0 0
12:52 pm 12:52 Sunny 41 5 9 -12.8 27 27 VRB 3 6 30.38 1029 10 16.0934 0 0
1:52 pm 13:52 Mostly Sunny 43 6.1 10 -12.2 26 26 WSW 7 11 30.36 1028 10 16.0934 0 0
2:52 pm 14:52 Mostly Sunny 46 7.8 9 -12.8 22 22 NW 9 15 30.33 1027 10 16.0934 0 0
3:52 pm 15:52 Mostly Sunny 47 8.3 8 -13.3 20 20 Calm 30.29 1026 10 16.0934 0 0
4:52 pm 16:52 Mostly Sunny 48 8.9 6 -14.4 18 18 VRB 5 7 30.27 1025 10 16.0934 0 0
5:52 pm 17:52 Partly Cloudy 49 9.4 5 -15 16 16 WSW 8 13 30.24 1024 10 16.0934 0 0
6:52 pm 18:52 Partly Cloudy 46 7.8 6 -14.4 19 19 SSW 7 11 30.22 1024 10 16.0934 0 0
7:52 pm 19:52 Partly Cloudy 44 6.7 12 -11.1 27 27 S 9 15 30.21 1023 10 16.0934 0 0
8:52 pm 20:52 Partly Cloudy 44 6.7 13 -10.6 28 28 S 8 13 30.2 1023 10 16.0934 0 0
9:52 pm 21:52 Mostly Cloudy 43 6.1 15 -9.4 32 32 S 12 19 30.18 1022 10 16.0934 0 0
10:52 pm 22:52 Cloudy 43 6.1 17 -8.3 35 35 S 14 22 30.15 1021 10 16.0934 0 0
11:52 pm 23:52 Cloudy 43 6.1 19 -7.2 38 38 S 12 19 30.16 1021 10 16.0934 0 0

Powered by AerisWeather